CW7399 Weather Reports


Display with metric or nautical units.
time (UTC)temp
F
wind
direction
speed
MPH
gust
MPH
rain 1hr
in
rain 24hr
in
rain mn
in
humidity
%
barometer
mb
20180819114504 64 17 2.0 4.0 0.00 0.07 0.00 96 1016.1
20180819114004 64 18 2.0 4.0 0.00 0.07 0.00 98 1015.9
20180819113504 64 23 2.0 5.0 0.00 0.07 0.00 98 1015.9
20180819113004 64 33 2.0 6.0 0.00 0.07 0.00 98 1015.9
20180819112504 64 353 2.0 5.0 0.00 0.07 0.00 98 1015.9
20180819112005 64 18 2.0 6.0 0.00 0.07 0.00 98 1015.8
20180819111504 63 12 2.0 4.0 0.00 0.07 0.00 98 1015.9
20180819111004 63 7 3.0 7.0 0.00 0.07 0.00 98 1015.9
20180819110504 63 10 2.0 4.0 0.00 0.07 0.00 98 1015.9
20180819110005 63 335 2.0 4.0 0.00 0.07 0.00 98 1015.8
20180819105504 63 22 2.0 4.0 0.00 0.07 0.00 98 1015.7
20180819105004 64 64 2.0 4.0 0.00 0.07 0.00 97 1015.6
20180819104504 64 30 1.0 3.0 0.00 0.07 0.00 98 1015.5
20180819104005 64 7 2.0 5.0 0.00 0.07 0.00 98 1015.5
20180819103504 64 360 2.0 6.0 0.00 0.07 0.00 96 1015.4
20180819103005 64 13 2.0 5.0 0.00 0.07 0.00 97 1015.4
20180819102504 64 52 3.0 6.0 0.00 0.07 0.00 97 1015.2
20180819102005 64 356 3.0 7.0 0.00 0.07 0.00 97 1015.1
20180819101504 64 31 3.0 6.0 0.00 0.07 0.00 97 1015.2
20180819101005 64 342 2.0 6.0 0.00 0.07 0.00 97 1015.1
20180819100504 64 354 2.0 4.0 0.00 0.07 0.00 97 1015.1
20180819100005 64 6 2.0 4.0 0.00 0.07 0.00 97 1015.1
20180819095504 64 306 1.0 4.0 0.00 0.07 0.00 97 1015.1
20180819095005 64 343 2.0 5.0 0.00 0.07 0.00 97 1015.0
20180819094504 64 17 3.0 7.0 0.00 0.07 0.00 97 1015.0
20180819094004 64 87 2.0 4.0 0.00 0.07 0.00 97 1015.0
20180819093504 64 353 1.0 3.0 0.00 0.07 0.00 97 1015.0
20180819093005 64 21 1.0 4.0 0.00 0.07 0.00 97 1014.7
20180819092504 64 52 1.0 4.0 0.00 0.07 0.00 97 1014.7
20180819092005 64 349 2.0 5.0 0.00 0.07 0.00 97 1014.7
20180819091505 64 335 3.0 5.0 0.00 0.07 0.00 98 1014.7
20180819091004 64 12 2.0 4.0 0.00 0.08 0.00 98 1014.7
20180819090504 64 345 2.0 5.0 0.00 0.08 0.00 97 1014.6
20180819090006 64 353 2.0 5.0 0.00 0.08 0.00 98 1014.6
20180819085505 64 353 2.0 5.0 0.00 0.08 0.00 98 1014.6
20180819085004 64 360 2.0 4.0 0.00 0.09 0.00 97 1014.6
20180819084504 64 358 3.0 6.0 0.00 0.10 0.00 98 1014.5
20180819084004 64 59 3.0 7.0 0.00 0.11 0.00 98 1014.5
20180819083505 64 12 2.0 6.0 0.00 0.12 0.00 97 1014.5
20180819083004 64 3 4.0 7.0 0.00 0.13 0.00 98 1014.4
20180819082504 64 37 2.0 6.0 0.00 0.14 0.00 98 1014.4
20180819082005 64 30 2.0 5.0 0.00 0.15 0.00 99 1014.3
20180819081504 64 18 3.0 7.0 0.00 0.15 0.00 99 1014.4
20180819081005 64 8 2.0 5.0 0.00 0.16 0.00 99 1014.4
20180819080505 64 32 2.0 4.0 0.00 0.16 0.00 99 1014.4
20180819080005 64 328 2.0 5.0 0.00 0.16 0.00 99 1014.3
20180819075504 64 66 1.0 3.0 0.00 0.17 0.00 99 1014.3
20180819075004 64 346 2.0 6.0 0.00 0.17 0.00 99 1014.2
20180819074504 64 21 1.0 3.0 0.00 0.18 0.00 99 1014.2
20180819074004 64 81 2.0 4.0 0.00 0.18 0.00 98 1014.2
20180819073504 64 345 3.0 5.0 0.00 0.18 0.00 99 1014.2
20180819073005 64 350 2.0 5.0 0.00 0.18 0.00 99 1014.2
20180819072504 64 14 2.0 5.0 0.00 0.18 0.00 99 1014.2
20180819072004 64 340 2.0 4.0 0.00 0.18 0.00 98 1014.2
20180819071506 64 70 1.0 3.0 0.00 0.18 0.00 99 1014.2
20180819071004 64 353 2.0 4.0 0.00 0.18 0.00 99 1014.2
20180819070504 64 17 2.0 5.0 0.00 0.18 0.00 99 1014.1
20180819070004 64 50 3.0 5.0 0.00 0.18 0.00 99 1014.0
20180819065504 64 27 2.0 5.0 0.00 0.18 0.00 99 1014.0
20180819065006 64 34 2.0 5.0 0.00 0.18 0.00 99 1014.0
20180819064504 64 12 3.0 6.0 0.00 0.18 0.00 99 1014.0
20180819064004 65 16 2.0 5.0 0.00 0.18 0.00 100 1013.8
20180819063504 65 341 2.0 5.0 0.00 0.18 0.00 100 1013.9
20180819063005 65 349 3.0 6.0 0.00 0.18 0.00 100 1013.9
20180819062504 65 11 4.0 7.0 0.00 0.18 0.00 99 1013.9
20180819062004 65 348 2.0 5.0 0.00 0.18 0.00 99 1013.7
20180819061504 65 5 2.0 5.0 0.00 0.18 0.00 100 1013.7
20180819061005 65 31 3.0 6.0 0.00 0.18 0.00 99 1013.7
20180819060504 65 360 3.0 7.0 0.00 0.18 0.00 100 1013.7
20180819060005 65 40 3.0 6.0 0.00 0.18 0.00 100 1013.7
20180819055504 65 40 2.0 5.0 0.00 0.18 0.00 99 1013.8
20180819055004 65 32 2.0 4.0 0.00 0.18 0.00 99 1013.8
20180819054504 65 13 2.0 5.0 0.00 0.18 0.00 100 1013.8
20180819054004 65 347 2.0 5.0 0.00 0.18 0.00 100 1013.8
20180819053504 65 359 3.0 5.0 0.00 0.18 0.00 99 1013.8
20180819053005 66 352 3.0 5.0 0.00 0.18 0.00 100 1013.8
20180819052504 66 342 2.0 4.0 0.00 0.18 0.00 99 1013.7
20180819052004 66 1 2.0 5.0 0.00 0.18 0.00 100 1013.7
20180819051504 66 10 2.0 7.0 0.00 0.18 0.00 100 1013.7
20180819051004 66 357 2.0 5.0 0.00 0.18 0.00 100 1013.7
20180819050503 66 344 2.0 5.0 0.00 0.18 0.00 100 1013.7
20180819050008 66 15 3.0 6.0 0.00 0.18 0.00 100 1013.7
20180819045503 67 26 2.0 4.0 0.00 0.18 0.00 100 1013.8
20180819045004 67 346 3.0 6.0 0.00 0.18 0.00 100 1013.7
20180819044504 67 342 3.0 6.0 0.00 0.18 0.00 100 1013.7
20180819044004 67 3 3.0 6.0 0.00 0.18 0.00 100 1013.6
20180819043504 67 16 2.0 4.0 0.00 0.18 0.00 99 1013.6
20180819043004 67 15 3.0 5.0 0.00 0.18 0.00 100 1013.5
20180819042504 67 6 3.0 6.0 0.00 0.18 0.00 100 1013.3
20180819042004 68 352 3.0 6.0 0.00 0.18 0.00 100 1013.2
20180819041504 68 358 3.0 6.0 0.00 0.18 0.00 99 1013.1
20180819041004 68 338 2.0 5.0 0.00 0.18 0.00 100 1013.2
20180819040504 68 32 3.0 6.0 0.00 0.18 0.00 99 1013.1
20180819035504 68 359 3.0 6.0 0.00 0.18 0.18 99 1012.9
20180819035005 69 2 3.0 7.0 0.00 0.18 0.18 98 1012.9
20180819034503 69 4 2.0 4.0 0.00 0.18 0.18 98 1012.9
20180819034005 69 354 2.0 4.0 0.00 0.18 0.18 98 1012.9
20180819033504 70 23 4.0 7.0 0.00 0.18 0.18 99 1012.8
20180819033007 70 346 3.0 6.0 0.00 0.18 0.18 100 1012.7
20180819032504 70 360 3.0 6.0 0.00 0.18 0.18 99 1012.6
20180819032004 70 26 3.0 5.0 0.00 0.18 0.18 99 1012.6
20180819031504 70 339 1.0 2.0 0.00 0.18 0.18 99 1012.5
20180819031004 70 67 1.0 3.0 0.00 0.18 0.18 98 1012.6
20180819030503 70 11 1.0 4.0 0.00 0.18 0.18 98 1012.6
20180819030004 70 337 0.0 1.0 0.00 0.18 0.18 99 1012.5
20180819025504 70 22 0.0 1.0 0.00 0.18 0.18 99 1012.6
20180819025003 70 337 0.0 1.0 0.00 0.18 0.18 98 1012.5
20180819024504 70 337 0.0 0.0 0.00 0.18 0.18 99 1012.6
20180819024004 70 337 0.0 0.0 0.00 0.18 0.18 98 1012.7
20180819023504 70 337 0.0 0.0 0.00 0.18 0.18 99 1012.7
20180819023004 70 337 0.0 0.0 0.00 0.18 0.18 99 1012.6
20180819022503 70 337 0.0 0.0 0.00 0.18 0.18 99 1012.6
20180819022005 70 337 0.0 0.0 0.00 0.18 0.18 99 1012.6
20180819021504 70 337 0.0 0.0 0.00 0.18 0.18 99 1012.6
20180819021004 70 337 0.0 1.0 0.00 0.18 0.18 99 1012.6
20180819020504 70 337 0.0 0.0 0.00 0.18 0.18 99 1012.5
20180819020005 70 337 0.0 0.0 0.01 0.18 0.18 99 1012.5
20180819015504 70 337 0.0 0.0 0.01 0.18 0.18 99 1012.5
20180819015004 70 337 0.0 0.0 0.01 0.18 0.18 99 1012.4
20180819014505 70 337 0.0 0.0 0.01 0.18 0.18 98 1012.4
20180819014004 70 337 0.0 0.0 0.01 0.18 0.18 99 1012.4
20180819013503 70 337 0.0 0.0 0.01 0.18 0.18 98 1012.3
20180819013005 70 337 0.0 0.0 0.01 0.18 0.18 99 1012.3
20180819012504 70 337 0.0 0.0 0.01 0.18 0.18 98 1012.2
20180819012004 70 337 0.0 1.0 0.01 0.18 0.18 99 1012.3
20180819011504 70 337 1.0 1.0 0.01 0.18 0.18 98 1012.3
20180819011004 71 337 0.0 0.0 0.01 0.18 0.18 98 1012.4
20180819010504 71 337 1.0 1.0 0.01 0.18 0.18 97 1012.4
20180819010004 71 337 0.0 0.0 0.01 0.17 0.17 98 1012.3
20180819005504 71 337 0.0 0.0 0.01 0.17 0.17 98 1012.3
20180819005004 71 337 0.0 0.0 0.01 0.17 0.17 98 1012.2
20180819004504 71 337 0.0 0.0 0.02 0.17 0.17 98 1012.4
20180819004004 71 337 0.0 1.0 0.03 0.17 0.17 97 1012.2
20180819003504 71 337 1.0 1.0 0.04 0.17 0.17 98 1012.1
20180819003005 71 337 0.0 0.0 0.05 0.17 0.17 97 1012.1
20180819002504 71 337 0.0 0.0 0.06 0.17 0.17 96 1012.0
20180819002004 71 337 0.0 0.0 0.06 0.17 0.17 96 1011.9
20180819001504 71 337 0.0 0.0 0.06 0.17 0.17 97 1012.0
20180819001004 71 337 0.0 0.0 0.06 0.17 0.17 96 1012.0
20180819000504 71 337 0.0 0.0 0.06 0.17 0.17 97 1011.9
20180819000006 71 337 0.0 0.0 0.05 0.16 0.16 96 1011.9
20180818235504 71 337 0.0 0.0 0.05 0.16 0.16 96 1011.8
20180818235004 71 337 0.0 0.0 0.04 0.15 0.15 97 1011.7
20180818234504 71 337 0.0 0.0 0.04 0.15 0.15 96 1011.6
20180818234005 71 337 0.0 0.0 0.02 0.13 0.13 95 1011.5
20180818233503 71 337 0.0 0.0 0.02 0.13 0.12 95 1011.5
20180818233004 71 337 0.0 0.0 0.01 0.12 0.12 96 1011.5
20180818232503 71 337 0.0 0.0 0.00 0.11 0.11 96 1011.5
20180818232005 71 337 0.0 1.0 0.00 0.11 0.11 96 1011.5
20180818231504 71 337 0.0 0.0 0.00 0.11 0.11 96 1011.5